Погода в Веребье

Россия / Новгородская область     58°40′42″N   32°41′50″E
темп.,
°C
ветер,
м/с
пор.,
м/с
влажн.,
%
обл.,
%
осадки,
мм/ч
давл.,
гПа
погр.,
м
18 мая, вт
вт1800:00+16вюв5159279 0.4 1007410
03:00+16вюв4139697 0.4 1006344
06:00+17вюв41296100 0.0 1005347
09:00+19юв41289100 1.1 1005552
12:00+25юв5857100 0.0 10051121
15:00+27ю5114989 0.0 10042463
18:00+26юв4953100 0.0 1003743
21:00+22юв51457100 0.0 1004676
19 мая, ср
ср1900:00+18вюв416657 0.0 1004485
03:00+17вюв514725 0.0 1004493
06:00+16юв515825 0.0 1003552
09:00+21юв510655 0.1 1003926
12:00+23ююв6156125 0.5 10032106
15:00+22ююв611675 2.1 10031534
18:00+20ю5107461 1.4 1004955
21:00+16ююв369153 2.2 1005132
20 мая, чт
чт2000:00+14ююв229510 1.3 100549
03:00+13юв119696 1.3 100512
06:00+14вюв2594100 0.0 1005139
09:00+19вюв237826 0.1 1004518
12:00+22вюв4666100 0.6 10021248
15:00+20юв4980100 3.6 1000831
18:00+18ююв511773 2.1 10001231
21:00+14юв399012 2.9 1000255
21 мая, пт
пт2100:00+12юв3996100 0.6 999409
03:00+12юз4698100 2.7 998562
06:00+9з61395100 2.3 1002993
09:00+9зюз499496 2.4 1006582
12:00+15зюз584814 0.0 10081499
15:00+16юз794413 0.0 10092258
18:00+16зюз594824 0.0 10092458
21:00+11юз410675 0.1 1012487
22 мая, сб
сб2200:00+7ююз311855 0.0 1012259
03:00+5ююз38910 0.0 1014167
06:00+7ююз39805 0.0 1015307
09:00+13ююз5760100 0.0 1015866
12:00+16ююз465399 0.0 10141705
15:00+17ююз4748100 0.0 10142024
18:00+17ююз485196 0.0 10131786
21:00+12ююв377469 0.0 1013112